Location: Coffee Creek Observatory
(38.8077°N, 94.7179°W)
Time: 02:56:19
(UTC-05:00)

Amateur Radio Satellites - All Passes

Search period start: 23 October 2014 02:26
Search period end: 24 October 2014 02:26
Location: Coffee Creek Observatory, 38.8077°N, 94.7179°W

Satellite Date Start Highest point End Downlink Frequencies (MHz)
Time Altitude Azimuth
ITAMSAT 1 23 Oct 02:28:17 02:31:36 17° 92° (E) 02:34:53 435.822 SSB
Oscar 19 23 Oct 02:59:26 03:04:35 88° 103° (ESE) 03:09:42 437.125 CW, 437.150 USB
AO-27 23 Oct 03:12:01 03:17:03 46° 99° (E) 03:22:02 436.795 MHz FM
Oscar 10/S400 23 Oct 03:26:07 03:52:54 11° 253° (WSW) 04:27:33 145.825 - 145.975 CW/USB, Beacon 145.810 USB
Sapphire 23 Oct 03:43:09 03:46:40 18° 105° (ESE) 03:50:11 437.095 MHz 1200 baud AX-25 AFSK
Oscar 16 23 Oct 03:45:18 03:49:52 34° 291° (WNW) 03:54:26 437.025 USB, Beacon 2401.1428
AO-Echo 23 Oct 03:56:24 04:01:32 51° 288° (WNW) 04:06:39 ?
JAS-1B 23 Oct 03:57:26 04:03:42 49° 289° (WNW) 04:11:06 435.800 - 435.900 CW/SSB
Uribyol 2 23 Oct 04:00:47 04:05:54 58° 287° (WNW) 04:10:58 436.500 FM
PCSat 23 Oct 04:04:32 04:09:13 31° 109° (ESE) 04:13:56 145.825 MHz
ITAMSAT 1 23 Oct 04:06:18 04:11:24 55° 288° (WNW) 04:16:28 435.822 SSB
Gurwin Techsat 1B 23 Oct 04:14:00 04:19:21 88° 284° (WNW) 04:24:40 435.225 FM
TMSAT-1 23 Oct 04:26:35 04:31:55 89° 104° (ESE) 04:37:13 436.925 FM
AO-7 23 Oct 04:28:27 04:34:58 25° 95° (E) 04:41:27 29.400 - 29.500 MHz
RS-15 23 Oct 04:35:51 04:42:32 17° 10° (N) 04:49:19 29.354 - 29.394 USB, Beacon 29.352 USB
OPAL 23 Oct 04:40:29 04:44:41 26° 65° (ENE) 04:48:52 ?
Oscar 19 23 Oct 04:41:43 04:43:09 11° 300° (WNW) 04:44:35 437.125 CW, 437.150 USB
AO-27 23 Oct 04:52:20 04:56:12 21° 295° (WNW) 05:00:03 436.795 MHz FM
Sapphire 23 Oct 05:24:15 05:29:34 58° 301° (WNW) 05:34:56 437.095 MHz 1200 baud AX-25 AFSK
Uosat F 23 Oct 05:39:27 05:44:29 65° 102° (ESE) 05:49:29 435.120 FM
PCSat 23 Oct 05:47:35 05:52:31 35° 306° (NW) 05:57:29 145.825 MHz
Gurwin Techsat 1B 23 Oct 05:56:59 05:58:29 11° 301° (WNW) 06:00:00 435.225 FM
JAS-2 23 Oct 06:01:55 06:08:58 36° 95° (E) 06:16:00 435.800 - 435.900 CW/SSB, 435.910 FM
TMSAT-1 23 Oct 06:09:20 06:11:02 12° 301° (WNW) 06:12:44 436.925 FM
OPAL 23 Oct 06:18:36 06:23:22 37° 260° (W) 06:28:06 ?
AO-7 23 Oct 06:20:03 06:28:17 68° 292° (WNW) 06:36:31 29.400 - 29.500 MHz
STRAND 1 23 Oct 06:21:53 06:25:55 24° 66° (ENE) 06:29:57 ?
Hamsat 23 Oct 06:31:06 06:34:46 29° 96° (E) 06:38:25 145.90 MHz
RS-15 23 Oct 06:49:12 06:59:25 39° 43° (NE) 07:09:56 29.354 - 29.394 USB, Beacon 29.352 USB
Sapphire 23 Oct 07:13:36 07:14:10 10° 321° (NW) 07:14:45 437.095 MHz 1200 baud AX-25 AFSK
Uosat F 23 Oct 07:19:55 07:22:42 15° 298° (WNW) 07:25:28 435.120 FM
Saudisat 1A 23 Oct 07:27:17 07:29:49 15° 109° (ESE) 07:32:22 436.775 MHz
SO-67 23 Oct 07:30:42 07:32:38 14° 93° (E) 07:34:34 435.3500 MHz FM
JAS-2 23 Oct 07:46:40 07:53:59 48° 291° (WNW) 08:01:22 435.800 - 435.900 CW/SSB, 435.910 FM
STRAND 1 23 Oct 08:00:04 08:04:50 39° 262° (W) 08:09:40 ?
Hamsat 23 Oct 08:07:21 08:10:33 22° 291° (WNW) 08:13:45 145.90 MHz
AO-7 23 Oct 08:15:28 08:19:33 15° 311° (NW) 08:23:38 29.400 - 29.500 MHz
RS-15 23 Oct 09:01:26 09:12:29 67° 245° (WSW) 09:24:03 29.354 - 29.394 USB, Beacon 29.352 USB
SO-67 23 Oct 09:02:41 09:05:39 27° 288° (WNW) 09:08:36 435.3500 MHz FM
Saudisat 1A 23 Oct 09:04:41 09:08:57 50° 305° (NW) 09:13:15 436.775 MHz
HO-68 23 Oct 09:06:00 09:11:04 20° 92° (E) 09:16:06 435.675 MHz FM
PANSAT 23 Oct 09:13:39 09:15:47 14° 170° (S) 09:17:54 not established
Oscar 11 23 Oct 10:15:47 10:19:08 22° 95° (E) 10:22:27 145.825 FM, Beacon 2401.500 USB
HO-68 23 Oct 10:52:09 10:59:19 70° 289° (WNW) 11:06:26 435.675 MHz FM
PANSAT 23 Oct 10:52:44 10:55:17 17° 183° (S) 10:57:50 not established
MaSat-1 23 Oct 10:53:05 10:55:16 25° 252° (WSW) 10:57:19 437.345 MHz
ZACube-1 23 Oct 10:59:57 11:03:36 27° 96° (E) 11:07:11 437.345 MHz
UKube-1 23 Oct 11:07:57 11:12:20 87° 285° (WNW) 11:16:42 145.840 MHz, 145.915 MHz
RS-15 23 Oct 11:18:50 11:22:43 12° 264° (W) 11:26:40 29.354 - 29.394 USB, Beacon 29.352 USB
KITSAT 1 23 Oct 11:25:37 11:30:14 17° 101° (E) 11:34:50 435.175 FM
FUNcube-1 23 Oct 11:44:40 11:48:57 87° 283° (WNW) 11:53:08 145.950 - 145.970 MHz USB
Oscar 11 23 Oct 11:51:34 11:55:18 30° 290° (WNW) 11:59:02 145.825 FM, Beacon 2401.500 USB
Sapphire 23 Oct 12:31:47 12:34:36 14° 43° (NE) 12:37:25 437.095 MHz 1200 baud AX-25 AFSK
PANSAT 23 Oct 12:33:43 12:34:45 11° 195° (SSW) 12:35:46 not established
ZACube-1 23 Oct 12:36:31 12:39:52 23° 292° (WNW) 12:43:09 437.345 MHz
Oscar 19 23 Oct 12:39:03 12:41:28 13° 61° (ENE) 12:43:53 437.125 CW, 437.150 USB
SO-50 23 Oct 12:41:26 12:43:58 15° 108° (ESE) 12:46:32 436.795 FM
HO-68 23 Oct 12:42:45 12:45:44 13° 308° (NW) 12:48:43 435.675 MHz FM
PCSat 23 Oct 12:53:39 12:57:47 22° 48° (NE) 13:01:54 145.825 MHz
JAS-1B 23 Oct 12:54:28 12:58:18 18° 62° (ENE) 13:02:01 435.800 - 435.900 CW/SSB
ISS 23 Oct 12:57:28 13:00:08 23° 132° (SE) 13:02:49 145.800 FM
Oscar 10/S400 23 Oct 13:04:45 13:24:03 32° 151° (SSE) 13:41:08 145.825 - 145.975 CW/USB, Beacon 145.810 USB
KITSAT 1 23 Oct 13:16:24 13:24:29 89° 118° (ESE) 13:32:37 435.175 FM
Oscar 16 23 Oct 13:21:52 13:26:31 35° 69° (ENE) 13:31:10 437.025 USB, Beacon 2401.1428
AO-Echo 23 Oct 13:30:55 13:34:28 20° 65° (ENE) 13:38:06 ?
Uribyol 2 23 Oct 13:39:24 13:43:22 23° 65° (ENE) 13:47:21 436.500 FM
ITAMSAT 1 23 Oct 13:44:54 13:48:58 24° 65° (ENE) 13:53:03 435.822 SSB
Gurwin Techsat 1B 23 Oct 13:56:38 13:59:46 16° 62° (ENE) 14:02:55 435.225 FM
TMSAT-1 23 Oct 14:09:04 14:12:03 15° 62° (ENE) 14:15:03 436.925 FM
Sapphire 23 Oct 14:13:24 14:18:52 84° 62° (ENE) 14:24:17 437.095 MHz 1200 baud AX-25 AFSK
UOSAT-12 23 Oct 14:14:34 14:16:19 12° 107° (ESE) 14:18:04 437.025 FM, 437.400 FM
Oscar 19 23 Oct 14:15:00 14:20:09 74° 257° (WSW) 14:25:19 437.125 CW, 437.150 USB
SO-50 23 Oct 14:19:37 14:24:00 54° 305° (NW) 14:28:32 436.795 FM
AO-27 23 Oct 14:28:49 14:33:56 62° 73° (ENE) 14:39:06 436.795 MHz FM
ISS 23 Oct 14:33:34 14:36:41 37° 328° (NNW) 14:39:50 145.800 FM
PCSat 23 Oct 14:36:15 14:41:34 57° 247° (WSW) 14:46:50 145.825 MHz
JAS-1B 23 Oct 14:42:33 14:48:35 57° 258° (WSW) 14:54:11 435.800 - 435.900 CW/SSB
Oscar 16 23 Oct 15:01:36 15:05:53 26° 265° (W) 15:10:11 437.025 USB, Beacon 2401.1428
AO-Echo 23 Oct 15:08:18 15:12:53 43° 262° (W) 15:17:39 ?
KITSAT 1 23 Oct 15:14:45 15:20:57 24° 320° (NW) 15:27:12 435.175 FM
Uribyol 2 23 Oct 15:17:35 15:22:32 43° 261° (W) 15:27:31 436.500 FM
ITAMSAT 1 23 Oct 15:23:18 15:28:11 41° 261° (W) 15:33:07 435.822 SSB
AO-7 23 Oct 15:26:15 15:33:16 32° 59° (ENE) 15:40:18 29.400 - 29.500 MHz
Gurwin Techsat 1B 23 Oct 15:33:54 15:39:10 65° 259° (WSW) 15:44:27 435.225 FM
TMSAT-1 23 Oct 15:46:07 15:51:22 68° 258° (WSW) 15:56:40 436.925 FM
UOSAT-12 23 Oct 15:51:12 15:55:49 70° 303° (WNW) 16:00:32 437.025 FM, 437.400 FM
Saudisat 1A 23 Oct 15:54:53 15:56:32 12° 40° (NE) 15:58:12 436.775 MHz
Sapphire 23 Oct 15:59:47 16:01:29 11° 258° (WSW) 16:03:11 437.095 MHz 1200 baud AX-25 AFSK
AO-27 23 Oct 16:11:00 16:13:51 15° 269° (W) 16:16:43 436.795 MHz FM
ISS 23 Oct 16:12:56 16:14:09 12° 347° (NNW) 16:15:22 145.800 FM
JAS-2 23 Oct 16:17:15 16:19:10 12° 53° (NE) 16:21:09 435.800 - 435.900 CW/SSB, 435.910 FM
Uosat F 23 Oct 16:51:21 16:56:21 78° 75° (ENE) 17:01:24 435.120 FM
AO-7 23 Oct 17:17:32 17:25:37 57° 257° (WSW) 17:33:45 29.400 - 29.500 MHz
Hamsat 23 Oct 17:23:55 17:26:50 19° 68° (ENE) 17:29:45 145.90 MHz
Saudisat 1A 23 Oct 17:32:20 17:36:47 86° 59° (ENE) 17:41:12 436.775 MHz
UOSAT-12 23 Oct 17:35:27 17:36:50 11° 322° (NW) 17:38:13 437.025 FM, 437.400 FM
JAS-2 23 Oct 17:57:03 18:02:49 74° 74° (ENE) 18:09:25 435.800 - 435.900 CW/SSB, 435.910 FM
OPAL 23 Oct 18:29:21 18:34:18 63° 104° (ESE) 18:39:10 ?
Uosat F 23 Oct 18:34:38 18:35:41 11° 270° (W) 18:36:44 435.120 FM
Hamsat 23 Oct 18:58:41 19:02:32 34° 263° (W) 19:06:22 145.90 MHz
KITSAT 1 23 Oct 19:18:21 19:20:28 11° 22° (NNE) 19:22:35 435.175 FM
ISS 23 Oct 19:26:55 19:29:44 25° 28° (NNE) 19:32:33 145.800 FM
SO-67 23 Oct 19:33:17 19:36:41 71° 77° (ENE) 19:40:07 435.3500 MHz FM
HO-68 23 Oct 19:35:36 19:39:12 15° 54° (NE) 19:42:48 435.675 MHz FM
JAS-2 23 Oct 19:45:33 19:48:47 15° 274° (W) 19:52:12 435.800 - 435.900 CW/SSB, 435.910 FM
OPAL 23 Oct 20:09:51 20:12:38 15° 300° (WNW) 20:15:24 ?
STRAND 1 23 Oct 20:11:31 20:16:42 78° 103° (ESE) 20:21:50 ?
ISS 23 Oct 21:03:22 21:06:32 40° 224° (SW) 21:09:40 145.800 FM
Oscar 11 23 Oct 21:10:30 21:13:06 16° 66° (ENE) 21:15:42 145.825 FM, Beacon 2401.500 USB
KITSAT 1 23 Oct 21:11:23 21:18:44 36° 48° (NE) 21:26:01 435.175 FM
SO-50 23 Oct 21:13:09 21:15:48 14° 41° (NE) 21:18:27 436.795 FM
AO-40 23 Oct 21:14:23 22:13:50 13° 105° (ESE) 22:56:03 Beacon 2401.320
RS-15 23 Oct 21:15:08 21:22:38 21° 101° (E) 21:30:01 29.354 - 29.394 USB, Beacon 29.352 USB
HO-68 23 Oct 21:18:36 21:25:44 78° 72° (ENE) 21:32:56 435.675 MHz FM
STRAND 1 23 Oct 21:52:57 21:55:11 13° 299° (WNW) 21:57:26 ?
ZACube-1 23 Oct 21:55:17 21:58:48 22° 68° (ENE) 22:02:17 437.345 MHz
UKube-1 23 Oct 22:01:52 22:06:11 68° 75° (ENE) 22:10:32 145.840 MHz, 145.915 MHz
FUNcube-1 23 Oct 22:39:06 22:43:39 64° 75° (ENE) 22:48:09 145.950 - 145.970 MHz USB
UOSAT-12 23 Oct 22:44:25 22:45:45 11° 38° (NE) 22:47:06 437.025 FM, 437.400 FM
Oscar 11 23 Oct 22:44:46 22:48:54 44° 261° (W) 22:53:03 145.825 FM, Beacon 2401.500 USB
SO-50 23 Oct 22:52:08 22:57:00 88° 239° (WSW) 23:01:54 436.795 FM
KITSAT 1 23 Oct 23:06:36 23:14:23 54° 248° (WSW) 23:22:08 435.175 FM
HO-68 23 Oct 23:09:36 23:14:07 18° 269° (W) 23:18:40 435.675 MHz FM
RS-15 23 Oct 23:22:25 23:33:28 87° 300° (WNW) 23:44:27 29.354 - 29.394 USB, Beacon 29.352 USB
ZACube-1 23 Oct 23:30:46 23:34:58 34° 263° (W) 23:39:08 437.345 MHz
FUNcube-1 24 Oct 00:18:54 00:20:23 11° 270° (W) 00:21:51 145.950 - 145.970 MHz USB
UOSAT-12 24 Oct 00:22:04 00:26:47 69° 57° (ENE) 00:31:24 437.025 FM, 437.400 FM
MaSat-1 24 Oct 00:27:32 00:31:46 76° 113° (ESE) 00:35:37 437.345 MHz
Oscar 16 24 Oct 01:36:31 01:38:51 13° 91° (E) 01:41:10 437.025 USB, Beacon 2401.1428
RS-15 24 Oct 01:38:30 01:47:30 28° 326° (NNW) 01:56:37 29.354 - 29.394 USB, Beacon 29.352 USB
UOSAT-12 24 Oct 02:04:28 02:06:18 12° 253° (WSW) 02:08:07 437.025 FM, 437.400 FM
